Regional Weather Roundup
Issued by NWS Upton, NY

Current Version | Previous Version | Graphics & Text | Print | Product List | Glossary Off
Versions: 1 2 3 4 5 6 7 8 9 10 11 12 13 14 15 16 17 18 19 20 21 22 23 24 25 26 27 28 29 30 31 32 33 34 35 36 37 38 39 40 41 42 43 44 45 46 47 48 49
411 ASUS41 KOKX 240409 RWROKX REGIONAL WEATHER ROUNDUP NATIONAL WEATHER SERVICE NEW YORK NY 1200 AM EDT MON APR 24 2017 NOTE: "FAIR" INDICATES FEW OR NO CLOUDS BELOW 12,000 FEET WITH NO SIGNIFICANT WEATHER AND/OR OBSTRUCTIONS TO VISIBILITY. NYZ071-072-176-178-NJZ106-104-240500- NEW YORK CITY METRO AREA CITY SKY/WX TMP DP RH WIND PRES REMARKS Central Park CLOUDY 52 39 61 CALM 30.15S Wall St Helipt CLOUDY 52 43 71 W3 30.14F Bronx Bot Gard N/A 48 41 76 SE2 30.14S LaGuardia APRT MOCLDY 53 42 66 SW6 30.13S Kennedy INTL CLOUDY 49 47 93 S10 30.15S Breezy Point N/A 48 N/A N/A SW5 N/A Newark/Liberty CLOUDY 51 42 71 S6 30.13S Teterboro PTCLDY 51 43 74 S5 30.12S $$ NYZ177-179-078>081-240500- LONG ISLAND NEW YORK CITY SKY/WX TMP DP RH WIND PRES REMARKS Jones Beach N/A 48 N/A N/A SW5 N/A Matinecock PT N/A 50 N/A N/A S2 N/A Farmingdale CLOUDY 48 45 89 SW6 30.14S MacArthur/ISP CLOUDY 47 43 86 S5 30.13F Shirley CLOUDY 47 41 80 S3 30.15S Mt Sinai Harb N/A 46 N/A N/A CALM N/A Westhampton CLOUDY 45 40 82 CALM 30.16S East Hampton N/A 44 41 90 SW3 30.14S Montauk N/A 47 44 90 SW5 30.16R $$ NYZ052-065-067-240500- HUDSON VALLEY CITY SKY/WX TMP DP RH WIND PRES REMARKS White Plains PTCLDY 45 41 86 CALM 30.12S Larchmont Harb N/A 48 N/A N/A S5 N/A Croton O-T Hud N/A 50 N/A N/A SE1 N/A Newburgh CLEAR 59 39 47 CALM 30.10S Montgomery CLOUDY 51 40 65 S5 30.09R Poughkeepsie CLOUDY 52 39 61 S6 30.09R Albany PTCLDY 48 37 65 CALM 30.06S $$ NJZ001-105-106-008-010-013-015-019>022-104-240500- NEW JERSEY CITY SKY/WX TMP DP RH WIND PRES REMARKS Newark/Liberty CLOUDY 51 42 71 S6 30.13S Teterboro PTCLDY 51 43 74 S5 30.12S Caldwell CLOUDY 52 42 69 CALM 30.13S Somerville PTCLDY 49 44 83 SE3 30.12R Linden N/A 51 40 67 CALM 30.13F Sussex PTCLDY 50 40 68 CALM 30.11S Andover N/A 52 43 71 S3 30.11R Trenton PTCLDY 48 44 86 S5 30.13S Millville CLOUDY 47 47 100 E5 30.12F Atlantic City CLOUDY 46 43 89 N6 30.13F Wrightstown CLOUDY 46 44 92 CALM 30.11S Toms River CLEAR 40 39 97 CALM 30.15S Belmar PTCLDY 47 44 90 SW3 30.15S $$ PAZ047>061-062-071-240500- EASTERN PENNSYLVANIA CITY SKY/WX TMP DP RH WIND PRES REMARKS Philadelphia CLOUDY 51 44 77 SE5 30.14S Allentown PTCLDY 55 40 56 S6 30.11R Scranton PTCLDY 53 35 50 CALM 30.08S $$ CTZ002-004>006-009-010-012-RIZ004-006-007-MAZ004-011-015-240500- SOUTHERN NEW ENGLAND IN CT CITY SKY/WX TMP DP RH WIND PRES REMARKS Bradley INTL CLOUDY 47 40 76 S9 30.11S Hartford CLOUDY 48 40 73 S6 30.13R Danbury CLOUDY 45 39 79 CALM 30.13S Wtrbury/Oxford PTCLDY 45 36 70 SW3 30.14S Bridgeport CLOUDY 50 42 74 SW7 30.14R Meriden CLOUDY 48 40 73 CALM 30.13S New Haven PTCLDY 48 42 80 SW3 30.14R Chester N/A 45 39 81 S3 30.13S Groton CLOUDY 45 41 86 SW5 30.14R Wilimantic PTCLDY 48 40 73 S5 30.14R IN RI CITY SKY/WX TMP DP RH WIND PRES REMARKS Providence CLOUDY 45 40 82 S8 30.14S Block Island PTCLDY 45 43 93 SW9 30.16R Westerly CLOUDY 47 43 86 CALM 30.15S IN MA CITY SKY/WX TMP DP RH WIND PRES REMARKS Boston CLOUDY 48 38 68 SW9 30.10S Worcester CLEAR 45 37 73 SW12 30.08F Westfield PTCLDY 47 41 80 S7 30.09S Provincetown CLOUDY 45 42 89 SW14 30.12F Nantucket CLOUDY 45 42 89 S9 30.15F $$ ANZ330-335-338-340-345-350-353-355-240500- COASTAL MARINE OBSERVATIONS STATION/POSITION TIME SKY/WX TEMP WIND PRES VSBY WAVE AIR SEA DIR/SP/G HT/PER (UTC) (F) (DEG/KT/KT) (MB) (MI) (FT/S) NY HARB ENTRANCE 0250 50 50 190/ 10/ 12 1020.7 3/13 20 S FIRE ISLAND 0350 48 49 190/ 6/ 8 1020.6 3/11 GREAT SOUTH BAY 0330 49 56 210/ 8/ 12 N/A 23 SSW MONTAUK P 0250 46 46 1021.3 3/11 15 E BARNEGAT LI 0330 51 N/A 4/11 HUDSON CANYON 0250 47 48 90/ 4/ 6 1021.4 4/12 KINGS POINT 0342 50 48 210/ 5/ 5 1020.2 EXECUTION ROCKS NOT AVBL CENTRAL LI SOUND 0345 47 210/ 4/ 6 N/A 1 EASTERN LI SOUND NOT AVBL ROBBINS REEF 0342 51 200/ 4/ 5 1020.5 $$ >>>>>>>>>>>>>>>>>>>>>>>>>>>> KEY <<<<<<<<<<<<<<<<<<<<<<<<<<< > < > SKY/WX - Sky Condition/Present Weather < > TMP - Temperature in Fahrenheit < > DP - Dew Point in Fahrenheit < > RH - Relative Humidity in Percent < > WIND - Direction (from) and Speed in MPH < > PRES - Mean Sea Level Pressure (inches of Hg) < > WCI - Wind Chill Index < > VSB - VISIBILITY IN MILES < > HX - HEAT INDEX < > TC - TEMPERATURE IN CELSIUS < > VRB - VARIABLE WIND DIRECTION < > < >>>>>>>>>>>>>>>>>>>>>>>>>>>> KEY <<<<<<<<<<<<<<<<<<<<<<<<<<<

USA.gov is the U.S. government's official web portal to all federal, state and local government web resources and services.